Location: Владивосток
(43.1151°N, 131.8856°E)
Time: 21:35:31
(UTC+10:00)

VELOX 1 - Visible Passes

Search period start: 30 June 2022 00:00
Search period end: 10 July 2022 00:00
Orbit: 625 x 638 km, 98.4° (Epoch: 24 June)

Date Brightness Start Highest point End Pass type
(mag) Time Alt. Az. Time Alt. Az. Time Alt. Az.
30 Jun ? 04:21:39 10° E 04:23:59 14° ENE 04:26:20 10° NNE visible
01 Jul ? 04:41:17 10° ESE 04:44:39 22° ENE 04:48:04 10° NNE visible
02 Jul ? 05:01:25 10° SE 05:05:24 34° ENE 05:09:24 10° N visible
04 Jul ? 04:10:30 10° ENE 04:11:26 11° ENE 04:12:23 10° NE visible
05 Jul ? 04:29:16 10° ESE 04:32:03 17° ENE 04:34:51 10° NNE visible
06 Jul ? 04:49:06 10° ESE 04:52:44 26° ENE 04:56:22 10° N visible
09 Jul ? 04:17:34 10° E 04:19:25 12° ENE 04:21:16 10° NE visible
